TimeCDT,TemperatureF,Dew PointF,Humidity,Sea Level PressureIn,VisibilityMPH,Wind Direction,Wind SpeedMPH,Gust SpeedMPH,PrecipitationIn,Events,Conditions,WindDirDegrees,DateUTC
12:53 AM,70.0,66.9,90,29.92,10.0,WSW,4.6,-,0.01,,Clear,240,2013-09-30 05:53:00
1:53 AM,69.1,66.9,93,29.91,10.0,Calm,Calm,-,N/A,,Mostly Cloudy,0,2013-09-30 06:53:00
2:53 AM,70.0,66.9,90,29.91,10.0,Calm,Calm,-,N/A,,Overcast,0,2013-09-30 07:53:00
3:53 AM,70.0,66.9,90,29.90,10.0,Calm,Calm,-,N/A,,Overcast,0,2013-09-30 08:53:00
4:53 AM,70.0,66.9,90,29.89,10.0,Calm,Calm,-,N/A,,Overcast,0,2013-09-30 09:53:00
5:53 AM,71.1,66.9,87,29.88,10.0,Calm,Calm,-,N/A,,Overcast,0,2013-09-30 10:53:00
6:53 AM,69.1,66.9,93,29.88,9.0,South,3.5,-,N/A,,Clear,180,2013-09-30 11:53:00
7:53 AM,70.0,66.9,90,29.89,7.0,Calm,Calm,-,N/A,,Clear,0,2013-09-30 12:53:00
8:53 AM,73.0,68.0,84,29.90,9.0,Calm,Calm,-,N/A,,Clear,0,2013-09-30 13:53:00
9:53 AM,73.9,66.0,76,29.91,10.0,Calm,Calm,-,N/A,,Overcast,0,2013-09-30 14:53:00
10:53 AM,75.0,64.9,71,29.91,10.0,SSE,3.5,-,N/A,,Overcast,160,2013-09-30 15:53:00
11:53 AM,78.1,68.0,71,29.92,10.0,South,4.6,-,N/A,,Overcast,170,2013-09-30 16:53:00
12:53 PM,80.1,66.0,62,29.90,10.0,SSE,5.8,-,N/A,,Mostly Cloudy,160,2013-09-30 17:53:00
1:53 PM,82.0,66.9,60,29.87,10.0,SW,4.6,-,N/A,,Partly Cloudy,220,2013-09-30 18:53:00
2:53 PM,84.0,66.9,56,29.85,10.0,SE,8.1,-,N/A,,Scattered Clouds,130,2013-09-30 19:53:00
3:53 PM,82.0,66.0,58,29.83,10.0,Variable,3.5,-,N/A,,Scattered Clouds,0,2013-09-30 20:53:00
4:53 PM,82.0,68.0,62,29.83,10.0,South,4.6,-,N/A,,Mostly Cloudy,180,2013-09-30 21:53:00
5:53 PM,82.9,68.0,60,29.83,10.0,SSE,5.8,-,N/A,,Clear,160,2013-09-30 22:53:00
6:53 PM,80.1,70.0,71,29.84,10.0,SSE,4.6,-,N/A,,Clear,150,2013-09-30 23:53:00
7:53 PM,77.0,70.0,79,29.85,10.0,SE,4.6,-,N/A,,Clear,140,2013-10-01 00:53:00
8:53 PM,75.9,70.0,82,29.86,10.0,ESE,3.5,-,N/A,,Clear,120,2013-10-01 01:53:00
9:53 PM,73.9,70.0,87,29.87,10.0,SE,5.8,-,N/A,,Clear,130,2013-10-01 02:53:00
10:53 PM,75.0,71.1,87,29.88,10.0,SE,8.1,-,N/A,,Clear,140,2013-10-01 03:53:00
11:53 PM,75.0,70.0,84,29.87,10.0,SE,8.1,-,N/A,,Partly Cloudy,140,2013-10-01 04:53:00